Probability
6 10 6 6 6 3 3 3 3 3 3 3 3 3 3 3 6 3 6 35 42 55 55 52 48 48 55 58 45 48 42 35 39 42 45 42 42 39 32 35 35 35 32
10 6 6 6 3 3 3 3 3 3 3 3 3 3 3 0 0 6 3 23 55 65 58 58 61 52 58 45 52 45 52 42 45 48 45 42 45 42 39 32 32 35 42
6 6 6 6 3 6 3 3 3 6 3 0 0 0 0 0 3 3 3 6 23 52 58 61 58 58 48 42 42 42 39 45 45 42 35 39 39 39 35 39 35 32 39
19 10 10 6 3 10 3 3 3 3 0 0 3 3 0 0 3 10 3 3 3 13 32 65 65 68 52 45 48 48 45 42 45 35 39 35 32 32 26 26 23 16 19
19 10 6 6 10 10 10 10 0 0 0 0 0 3 0 0 6 3 3 3 0 3 3 16 55 65 55 48 45 48 45 32 35 29 26 23 26 26 23 19 19 19 16
26 13 10 10 6 3 3 3 6 3 0 0 3 3 0 0 0 0 0 0 3 0 0 3 13 19 45 48 45 45 45 32 26 26 32 32 23 26 19 19 19 16 16
19 10 10 19 6 3 3 3 3 3 3 0 0 0 0 0 0 0 0 0 0 0 0 0 0 6 10 42 35 42 39 35 35 35 35 35 39 29 26 19 19 19 19
13 16 13 13 10 6 6 6 3 3 3 3 0 0 0 0 0 0 0 3 0 0 0 3 3 3 6 6 10 35 42 39 35 39 39 42 35 29 29 26 23 23 23
16 16 13 10 6 3 3 3 3 3 3 3 0 0 0 0 0 0 0 0 0 0 0 0 3 0 3 3 6 19 39 39 39 35 35 39 35 29 29 29 19 19 23
16 16 10 10 10 0 3 0 6 3 10 3 3 3 3 0 0 0 0 0 0 0 0 0 0 0 3 0 3 10 19 35 39 42 39 35 26 26 29 29 29 23 23
16 16 10 10 6 3 6 3 3 3 3 0 0 0 0 0 0 0 0 0 0 0 0 0 0 0 0 0 3 10 19 19 23 35 39 32 32 29 19 23 29 29 29
19 19 10 10 6 6 3 3 3 3 3 3 0 0 0 0 0 0 0 0 0 0 0 0 0 0 0 3 6 10 13 13 13 16 16 23 29 23 23 23 19 23 23
19 16 16 10 10 10 3 6 3 6 6 6 6 3 3 3 0 0 0 0 0 0 0 0 0 0 0 0 3 10 10 10 6 0 3 16 10 13 16 19 16 26 23
19 19 13 13 16 13 13 3 3 3 3 3 6 6 6 6 0 0 0 0 0 0 0 0 0 0 0 0 0 3 6 10 3 0 0 0 0 0 10 13 13 13 13
16 13 13 13 13 13 6 6 10 10 6 10 6 6 6 6 0 0 0 0 0 0 0 0 0 0 0 0 0 0 3 3 3 0 0 0 0 0 0 0 0 0 0
16 16 19 23 16 13 6 6 6 6 13 13 10 10 13 10 3 3 0 0 0 0 0 0 0 0 0 0 0 0 3 0 0 0 0 0 0 0 0 0 0 0 0
26 23 19 16 16 16 16 10 10 6 13 13 10 10 10 10 6 6 0 0 0 0 0 0 0 0 0 0 0 0 0 0 0 0 0 0 0 0 0 0 0 0 0
23 19 19 19 19 19 23 16 16 23 16 16 13 10 10 10 10 10 6 0 0 0 0 0 0 0 0 0 0 0 0 0 0 0 0 0 0 0 0 0 0 0 0
29 26 26 19 19 23 19 16 16 19 16 16 16 10 10 10 13 13 10 6 0 0 0 3 3 0 0 0 0 0 0 0 0 0 0 0 0 0 0 0 0 0 0
32 23 23 23 23 19 19 19 19 19 16 16 16 16 16 16 16 13 13 6 10 6 3 3 3 0 0 0 0 0 0 0 0 0 0 0 0 0 0 0 0 0 0
29 23 23 23 19 19 19 19 19 19 16 16 16 16 16 19 19 13 16 10 10 6 3 3 3 0 0 0 0 0 0 0 0 0 0 0 0 0 0 0 0 0 0
23 23 19 23 23 23 16 16 16 16 13 16 16 19 16 16 16 10 10 6 6 6 3 3 3 3 0 0 0 0 0 0 0 0 0 0 0 0 0 0 0 0 0
23 26 23 23 16 16 16 16 10 10 13 16 16 16 19 23 16 13 13 3 3 0 3 3 0 0 0 0 0 0 0 0 0 0 0 0 0 0 0 0 0 0 0
32 26 26 23 26 23 13 10 6 6 10 10 13 13 19 19 16 13 10 10 10 3 0 0 0 0 0 0 0 0 0 0 0 0 0 0 0 0 0 0 0 0 0
26 26 23 19 19 23 16 10 3 6 6 10 10 13 16 19 16 3 6 6 10 6 0 0 0 0 0 0 0 0 0 0 0 0 0 0 0 0 0 0 0 0 0
29 23 26 23 23 23 19 10 3 3 3 13 13 10 10 10 10 3 3 3 3 6 3 3 0 0 0 0 0 0 0 0 0 0 0 0 0 0 0 0 0 0 0
Height
5897 5897 5897 5897 5897 5897 5897 5897 5897 5896 5896 5896 5896 5895 5895 5895 5894 5894 5893 5892 5892 5891 5891 5891 5891 5890 5890 5890 5890 5890 5890 5889 5889 5889 5889 5889 5889 5889 5888 5888 5889 5889 5889
5896 5897 5897 5896 5897 5897 5897 5897 5896 5896 5896 5895 5895 5895 5894 5894 5893 5892 5892 5891 5891 5890 5890 5889 5889 5889 5889 5889 5888 5888 5888 5888 5887 5887 5887 5887 5887 5887 5886 5886 5886 5886 5886
5896 5896 5896 5896 5896 5896 5896 5896 5895 5895 5895 5895 5894 5894 5893 5893 5892 5891 5891 5890 5889 5888 5888 5888 5887 5887 5887 5887 5887 5886 5886 5885 5885 5885 5885 5884 5884 5884 5884 5884 5884 5884 5884
5895 5895 5896 5896 5895 5895 5895 5895 5895 5894 5894 5894 5893 5893 5892 5892 5891 5890 5889 5888 5887 5886 5886 5885 5885 5885 5885 5885 5884 5884 5883 5882 5882 5882 5882 5882 5882 5881 5881 5881 5881 5881 5881
5894 5895 5895 5895 5895 5894 5894 5894 5894 5893 5893 5893 5892 5891 5891 5890 5889 5888 5887 5886 5885 5884 5884 5884 5883 5883 5883 5883 5882 5881 5880 5879 5878 5879 5879 5879 5879 5879 5878 5878 5878 5878 5877
5894 5894 5895 5894 5894 5893 5893 5893 5892 5892 5892 5892 5891 5890 5889 5889 5888 5887 5886 5884 5883 5883 5882 5882 5882 5881 5881 5880 5880 5879 5878 5876 5875 5875 5876 5876 5876 5875 5875 5875 5874 5874 5874
5894 5894 5894 5894 5893 5892 5892 5891 5891 5891 5890 5890 5890 5889 5888 5887 5886 5885 5884 5883 5882 5881 5881 5880 5880 5879 5879 5878 5877 5876 5876 5875 5874 5874 5874 5873 5873 5872 5872 5871 5871 5870 5870
5895 5894 5894 5893 5892 5891 5891 5890 5890 5890 5889 5888 5888 5887 5886 5885 5884 5883 5882 5881 5880 5880 5879 5879 5878 5877 5877 5876 5875 5874 5873 5872 5872 5871 5871 5870 5869 5869 5868 5867 5867 5866 5866
5895 5894 5893 5892 5891 5891 5890 5889 5889 5888 5887 5887 5886 5885 5884 5883 5882 5882 5880 5879 5878 5877 5877 5876 5876 5875 5874 5873 5872 5871 5870 5869 5869 5868 5867 5866 5865 5865 5864 5863 5863 5862 5862
5895 5894 5893 5892 5891 5890 5889 5888 5888 5887 5886 5885 5884 5883 5883 5881 5880 5879 5878 5877 5876 5875 5875 5874 5873 5871 5870 5870 5869 5868 5867 5866 5865 5864 5863 5862 5861 5860 5859 5859 5858 5858 5858
5894 5893 5892 5891 5890 5889 5888 5887 5886 5885 5884 5883 5882 5881 5880 5879 5878 5877 5876 5874 5873 5872 5871 5870 5869 5868 5867 5866 5865 5864 5863 5862 5861 5860 5859 5858 5856 5856 5855 5854 5854 5853 5853
5894 5892 5891 5890 5889 5888 5887 5886 5885 5883 5882 5881 5880 5879 5878 5877 5875 5874 5873 5872 5870 5869 5868 5867 5866 5865 5864 5862 5861 5860 5859 5858 5857 5856 5854 5853 5852 5851 5851 5850 5849 5849 5848
5892 5891 5890 5889 5888 5886 5885 5884 5882 5881 5880 5879 5878 5876 5875 5874 5873 5871 5870 5869 5867 5866 5864 5863 5862 5861 5860 5858 5857 5856 5855 5853 5852 5851 5850 5849 5848 5847 5846 5845 5845 5844 5843
5891 5889 5888 5887 5885 5884 5883 5881 5880 5878 5877 5876 5875 5873 5872 5871 5869 5868 5867 5865 5863 5862 5860 5859 5858 5856 5855 5854 5852 5851 5850 5849 5848 5846 5845 5844 5843 5842 5841 5841 5840 5839 5839
5889 5887 5886 5884 5882 5881 5880 5878 5877 5875 5874 5872 5871 5870 5868 5867 5866 5864 5862 5861 5860 5858 5856 5855 5853 5851 5850 5849 5847 5846 5845 5844 5843 5841 5840 5839 5838 5837 5836 5836 5835 5834 5833
5886 5884 5883 5881 5879 5877 5876 5874 5873 5872 5870 5869 5867 5866 5864 5863 5861 5860 5858 5856 5855 5854 5852 5850 5848 5846 5845 5843 5842 5841 5840 5839 5838 5836 5835 5834 5833 5832 5831 5830 5829 5829 5828
5883 5881 5880 5878 5876 5874 5872 5870 5869 5867 5866 5864 5863 5862 5860 5859 5857 5855 5854 5852 5850 5848 5846 5844 5842 5840 5839 5838 5837 5835 5834 5833 5832 5831 5830 5829 5828 5827 5826 5825 5824 5823 5822
5880 5878 5876 5874 5872 5870 5868 5866 5865 5863 5862 5860 5859 5857 5856 5854 5853 5851 5849 5847 5845 5843 5842 5840 5837 5835 5834 5832 5831 5830 5829 5828 5826 5825 5824 5823 5822 5821 5820 5819 5818 5817 5816
5876 5874 5872 5870 5868 5866 5864 5862 5861 5859 5857 5856 5854 5853 5851 5849 5848 5846 5844 5842 5840 5838 5836 5834 5832 5830 5828 5827 5826 5824 5823 5822 5820 5819 5818 5817 5816 5815 5814 5812 5811 5811 5810
5871 5870 5868 5866 5864 5862 5860 5858 5856 5854 5852 5851 5849 5847 5846 5844 5843 5841 5839 5836 5834 5832 5830 5828 5826 5825 5823 5821 5820 5818 5817 5815 5814 5813 5812 5810 5809 5808 5807 5806 5805 5804 5803
5867 5865 5864 5862 5860 5858 5856 5854 5852 5850 5848 5846 5844 5842 5841 5839 5837 5835 5833 5830 5828 5826 5824 5822 5820 5819 5817 5815 5813 5812 5810 5809 5808 5806 5805 5804 5802 5801 5800 5799 5798 5797 5796
5862 5860 5858 5857 5855 5853 5851 5849 5846 5844 5842 5840 5839 5837 5835 5833 5831 5829 5826 5824 5822 5820 5818 5816 5814 5812 5811 5809 5807 5805 5804 5803 5802 5800 5798 5797 5795 5794 5792 5791 5790 5789 5788
5857 5855 5853 5851 5849 5847 5845 5843 5840 5838 5837 5835 5833 5831 5829 5827 5824 5822 5820 5817 5815 5813 5811 5809 5807 5805 5803 5802 5800 5798 5797 5796 5795 5793 5792 5790 5788 5787 5785 5783 5782 5781 5780
5851 5849 5848 5845 5843 5841 5839 5837 5835 5832 5830 5829 5827 5825 5822 5820 5818 5816 5813 5811 5808 5806 5803 5801 5800 5797 5796 5794 5793 5791 5789 5788 5787 5785 5784 5783 5781 5779 5777 5776 5775 5773 5772
5846 5844 5841 5839 5837 5835 5832 5830 5828 5826 5824 5822 5820 5818 5815 5813 5811 5808 5806 5804 5801 5798 5796 5794 5792 5790 5788 5786 5785 5783 5781 5780 5779 5777 5775 5774 5773 5771 5769 5768 5766 5765 5764
5839 5837 5835 5832 5830 5828 5826 5823 5821 5819 5817 5815 5812 5810 5808 5805 5803 5800 5798 5795 5793 5791 5788 5786 5784 5782 5780 5778 5776 5774 5772 5771 5769 5768 5766 5765 5764 5762 5762 5760 5759 5757 5756
Wind_Speed
3 3 2 2 1 1 1 1 1 1 1 1 1 2 3 3 3 4 4 3 4 4 5 5 5 5 5 5 6 6 6 6 6 7 7 7 7 8 8 8 9 9 9
3 2 2 2 1 0 0 1 1 2 2 2 2 3 3 4 4 4 4 4 4 5 5 5 5 6 6 6 7 7 7 7 8 8 8 8 9 10 10 10 11 11 11
2 2 1 1 0 1 1 2 2 2 3 3 3 3 4 5 4 5 5 5 5 5 5 5 6 6 6 7 8 8 8 9 9 9 9 10 10 11 11 10 12 12 12
1 1 1 0 0 1 2 3 3 3 3 3 4 4 4 5 5 6 6 6 6 5 6 6 6 6 7 8 8 8 9 10 11 11 11 11 12 11 12 12 12 12 13
1 1 0 1 1 2 2 3 3 3 3 4 4 5 5 6 6 7 7 7 6 6 6 6 6 7 7 8 8 8 9 10 11 12 13 13 13 13 13 13 13 13 14
2 1 1 1 2 2 3 3 4 4 4 5 5 5 5 6 6 6 6 7 6 6 6 6 7 7 7 8 9 10 10 10 10 11 12 12 13 13 13 14 14 14 14
2 1 1 2 3 3 4 4 4 4 5 5 5 5 5 5 5 5 6 6 6 6 7 7 7 7 7 8 9 9 10 11 11 11 12 12 12 13 14 14 15 15 15
3 2 2 2 3 4 4 4 4 5 5 5 5 6 6 6 5 6 7 7 7 7 7 7 8 8 8 9 9 10 11 11 11 12 12 12 13 14 14 15 16 16 17
4 3 3 3 4 4 4 4 4 5 5 6 7 7 7 7 7 7 7 7 8 9 8 8 8 9 10 10 10 11 11 12 12 12 13 14 14 14 14 15 16 16 16
4 4 4 4 4 4 4 4 4 5 6 6 7 7 7 8 8 8 8 8 8 9 9 9 10 11 11 12 12 13 13 13 13 13 14 15 15 14 14 15 15 16 17
4 4 5 5 5 6 6 6 6 6 7 7 7 8 8 9 9 9 8 8 8 9 10 11 11 12 12 13 13 13 13 14 14 14 14 14 14 15 15 15 16 17 18
6 5 6 6 6 6 7 7 8 8 8 8 8 9 10 10 9 9 9 9 9 10 11 12 12 13 13 14 14 14 14 14 14 14 14 14 15 15 15 15 16 16 17
6 7 7 7 7 8 8 9 9 9 9 9 10 10 11 11 11 11 11 11 10 11 12 13 14 14 14 15 15 15 15 15 15 15 15 15 15 15 15 16 16 16 17
7 7 8 8 9 9 10 10 10 10 10 11 11 11 11 11 11 12 12 12 12 12 13 14 15 16 16 16 15 15 15 15 16 16 16 16 15 16 15 16 17 17 18
8 9 9 10 11 11 11 11 11 12 12 12 12 12 12 12 12 13 13 13 14 14 15 16 16 16 17 17 17 16 16 16 16 17 17 17 16 16 16 17 17 18 18
10 11 11 12 12 13 13 12 12 13 13 13 13 13 12 12 13 14 14 14 15 16 16 16 17 18 18 17 16 17 17 16 16 16 17 16 17 17 17 18 18 18 19
12 12 13 13 13 14 14 13 14 14 14 14 13 13 13 13 14 15 16 16 16 16 16 17 18 18 17 18 18 17 17 17 17 17 17 18 18 17 18 18 18 18 19
13 14 14 14 14 15 14 13 13 14 14 14 14 14 15 15 15 16 17 17 17 17 17 17 17 18 18 18 18 18 18 18 18 18 18 18 18 18 19 19 19 20 20
14 15 14 14 15 15 15 14 14 15 15 16 16 16 16 17 17 18 18 19 19 18 18 18 18 19 18 18 18 19 19 19 19 19 19 19 19 19 20 20 20 21 21
15 16 16 16 16 16 16 16 16 16 16 16 17 17 18 19 20 20 20 21 21 20 20 20 20 20 20 19 19 20 20 20 20 20 20 20 20 21 21 21 22 22 22
16 17 18 18 18 18 18 18 17 17 17 17 18 19 20 21 22 22 22 21 22 21 21 21 21 21 21 21 21 21 20 20 21 21 21 21 22 22 23 22 23 23 23
18 19 18 18 19 19 20 20 20 19 18 18 19 20 20 21 22 23 23 23 23 23 22 23 23 23 23 22 21 21 21 22 22 22 21 22 22 23 24 23 24 24 24
18 19 19 20 20 20 20 21 20 20 19 19 19 20 21 21 22 23 24 24 24 24 24 25 25 25 24 23 23 23 23 23 23 24 23 23 23 24 25 25 25 25 24
21 21 22 22 22 21 22 22 22 22 21 21 22 22 23 23 24 24 25 25 25 25 25 25 26 26 26 25 25 25 25 25 25 26 26 25 25 25 25 25 26 25 25
22 22 23 23 23 23 23 23 23 23 23 23 23 24 24 25 25 26 26 26 26 25 25 25 26 26 27 27 27 27 27 27 27 27 27 26 26 26 26 26 26 26 26
24 25 25 24 24 25 25 25 25 25 25 25 26 25 25 26 27 27 27 27 27 26 26 26 27 27 28 28 28 28 29 29 28 28 28 28 27 27 26 27 27 28 28
Wind_Direction
102 98 97 80 82 84 73 81 70 339 325 301 282 286 292 281 288 293 291 286 289 284 275 266 263 263 268 266 264 266 265 256 255 262 263 263 262 263 259 253 250 253 253
108 105 94 70 47 34 357 332 334 325 318 307 297 292 293 289 294 296 292 292 288 287 281 270 271 266 266 266 268 268 266 265 262 262 263 263 263 264 262 256 250 255 253
119 126 109 86 54 346 321 321 326 322 317 309 306 302 293 294 284 292 291 289 284 278 276 275 273 273 269 269 269 269 270 269 261 258 263 264 262 262 262 258 254 253 251
131 138 142 173 291 316 310 311 314 313 310 308 306 304 296 292 287 288 289 290 285 277 275 274 269 269 272 273 272 271 273 269 263 260 262 260 262 262 259 260 257 255 253
107 89 23 348 329 318 311 311 310 305 306 306 304 298 295 297 295 290 287 287 285 279 278 275 270 268 272 275 273 273 277 277 271 264 262 262 264 263 260 261 260 256 255
71 57 355 340 334 317 307 309 305 293 291 297 301 301 296 301 300 294 291 288 282 278 274 271 269 268 269 276 276 274 276 277 271 268 268 268 268 265 262 259 258 257 256
44 16 328 335 335 321 311 311 309 298 289 288 299 302 300 302 300 298 297 286 276 275 274 269 265 269 273 277 281 278 279 276 271 269 269 270 270 270 266 261 259 257 258
34 27 357 344 336 327 318 309 304 301 298 291 297 299 296 298 297 294 294 284 278 275 273 271 267 268 272 274 280 279 279 274 274 272 274 275 274 275 271 266 262 260 259
30 17 6 353 348 343 335 322 312 298 298 294 293 297 294 290 294 295 289 283 277 273 272 270 272 273 276 280 282 282 279 276 274 273 276 276 275 275 274 270 265 262 262
23 12 4 359 353 353 345 337 327 309 298 296 299 299 298 296 297 297 293 285 275 273 268 272 278 278 280 283 284 280 279 275 275 275 274 275 274 273 272 271 269 264 261
360 359 353 347 345 341 336 331 324 318 307 299 298 301 303 303 303 300 296 292 284 282 280 281 284 284 285 285 284 283 279 274 275 278 280 279 277 275 271 270 270 266 262
346 342 338 331 326 326 325 323 322 318 312 305 302 300 301 303 301 299 295 295 289 287 287 285 285 286 285 285 286 285 282 279 279 278 279 280 280 279 274 270 270 267 263
338 334 328 322 320 317 316 313 312 312 309 306 305 304 302 300 296 296 295 293 289 286 286 286 287 289 288 288 287 285 282 282 280 280 282 283 282 279 275 272 271 271 266
331 327 321 316 314 312 310 307 305 305 303 303 302 301 301 298 295 293 292 291 290 287 287 287 287 287 286 288 288 286 283 282 280 280 281 282 281 279 277 276 275 273 270
324 321 317 314 312 308 306 305 303 302 301 299 297 296 293 293 293 292 291 290 290 289 287 287 287 287 287 285 284 284 283 282 280 279 281 279 277 278 278 277 275 273 272
316 316 316 313 310 308 305 302 301 299 299 297 295 296 295 293 292 294 293 293 292 291 289 287 287 287 287 285 285 281 282 281 282 283 282 281 280 279 279 278 276 274 272
308 310 312 312 310 311 310 306 302 297 297 299 298 299 297 296 295 295 295 294 294 294 292 289 287 286 283 284 283 283 282 283 283 283 284 283 281 280 280 279 278 276 275
302 304 306 308 308 306 307 307 306 304 302 300 298 297 296 297 297 296 296 295 295 294 293 292 290 288 286 285 283 282 281 280 282 283 283 282 281 280 278 278 278 278 276
299 302 302 304 304 304 303 303 303 302 300 298 297 296 296 295 296 296 296 296 294 293 292 291 290 289 287 286 283 281 280 280 281 283 283 282 280 279 278 278 277 278 277
296 301 300 301 302 304 306 302 299 300 299 298 298 296 295 294 295 294 295 295 293 291 290 290 289 287 285 286 285 282 281 280 279 280 281 281 280 279 279 278 278 278 276
296 299 298 298 300 302 303 303 301 299 298 298 298 297 295 294 294 294 293 294 293 292 290 290 289 288 286 286 285 283 281 280 280 280 280 279 280 279 278 277 277 277 277
297 299 297 299 301 302 300 300 298 296 296 297 298 297 296 295 294 295 296 295 294 292 291 289 288 288 286 285 285 283 282 280 279 280 281 280 280 279 277 276 276 276 275
298 298 298 299 300 301 300 302 301 298 297 298 298 297 298 299 297 296 297 295 292 290 289 288 286 286 285 283 283 283 282 281 281 281 282 283 282 282 279 278 277 277 275
296 297 299 300 300 300 302 302 299 296 296 296 296 295 295 296 296 296 296 295 292 290 288 287 286 285 284 283 283 283 282 281 281 281 280 280 280 281 280 278 277 276 275
294 294 295 296 298 299 300 299 297 295 295 294 293 293 294 295 296 295 294 293 293 292 290 289 288 286 284 283 282 282 281 280 280 280 279 279 279 279 279 277 276 274 273
291 292 294 296 297 297 298 298 296 295 295 294 293 292 292 294 295 295 295 293 291 290 290 290 289 288 286 285 283 283 282 280 279 279 277 276 276 277 277 276 275 274 272